Regional Weather Roundup
Issued by NWS

Home | Current Version | Previous Version | Text Only | Print | Product List | Glossary Off
Versions: 1 2 3 4 5 6 7 8 9 10 11 12 13 14 15 16 17 18 19 20 21 22 23 24 25 26 27 28 29 30 31 32 33 34 35 36 37 38 39 40 41 42 43 44 45 46 47 48 49 50

000
ASUS45 KTFX 101710
RWRMT
MONTANA REGIONAL WEATHER ROUNDUP
NATIONAL WEATHER SERVICE GREAT FALLS MT
1000 AM MST SAT DEC 10 2016

NOTE: "FAIR" INDICATES FEW OR NO CLOUDS BELOW 12000 FEET WITH NO
SIGNIFICANT WEATHER AND/OR OBSTRUCTIONS TO VISIBILITY.

MTZ001>007-043-101800-
WEST OF THE DIVIDE

CITY           SKY/WX    TMP DP  RH WIND       PRES   REMARKS
KALISPELL      LGT SNOW   9   6  88 SW3       29.78R FOG
MISSOULA       LGT SNOW  17  15  92 NW5       29.76R FOG
BUTTE          CLOUDY    19  16  88 S6        29.64F FOG     WCI  11
MULLAN PASS    SNOW      19  17  92 VRB5      29.63R VSB 1/4
ANACONDA         N/A     30  25  80 S10       29.63F WCI  21
DEER LODGE       N/A     14  10  85 NE3       29.64F
EUREKA           N/A      9   3  78 CALM      29.85R VSB 1/2
HAMILTON         N/A     16  12  86 N3        29.72R
LIBBY            N/A     12   9  85 CALM      29.82R
PLAINS           N/A     17  11  77 CALM      29.84R VSB 1
RONAN            N/A     14   9  81 CALM      29.82R
$$

MTZ008-052>055-101800-
SOUTHWEST MONTANA

CITY           SKY/WX    TMP DP  RH WIND       PRES   REMARKS
BOZEMAN        CLOUDY    14  10  84 CALM      29.68F
DILLON         CLOUDY    20  15  81 CALM      29.65F
W YELLOWSTONE  CLOUDY    28  25  86 SW7       29.72F WCI  21
ENNIS          PTSUNNY   36  27  69 S15       29.68F WCI  26
THREE FORKS      N/A     14 -14  28 CALM      29.72F
TWIN BRIDGES     N/A     21  13  71 SE3       29.70F
$$

MTZ009-010-012-014-046-048-049-054-101800-
EAST SLOPES AND CENTRAL MONTANA

CITY           SKY/WX    TMP DP  RH WIND       PRES   REMARKS
CUT BANK       LGT SNOW   2  -2  83 E7        29.70R FOG     WCI -11
GREAT FALLS    FLURRIES   4   1  88 CALM      29.70F
MALMSTROM AFB  FLURRIES   4   2  91 E2        29.73F
HELENA         CLOUDY     6   1  80 NW3       29.72F
AUGUSTA        SNOWSHWR   0  -3  88 NE3       29.64F
BOWMANS CRNR   FLURRIES  -2  -4  88 NE10      29.63F WCI -18
CHOTEAU          N/A      1  -2  85 MISG      29.71F
CONRAD           N/A      3   0  88 NE6       29.76R WCI  -8
FAIRFIELD      FLURRIES   2  -2  83 SE2       29.68F
POWER          FLURRIES   3   0  87 SE7       29.69F WCI  -9
RAYNESFORD     LGT SNOW   7   3  83 NW5       29.67F
ULM            PTSUNNY    1  -1  88 N7        29.71F WCI -11
$$

MTZ011-013-016-021-045-047-050-051-101800-
NORTH CENTRAL MONTANA

CITY           SKY/WX    TMP DP  RH WIND       PRES   REMARKS
HAVRE          CLOUDY     6   1  80 E17       29.83F WCI -13
LEWISTOWN      CLOUDY    10   5  80 NE3       29.66F
N BAR RANCH    MIX PCPN  30  25  80 CALM      29.68F
CHINOOK          N/A      3  -2  78 E15G23    29.88F WCI -15
DENTON         FLURRIES   6   4  89 MISG      29.69F
FORT BENTON      N/A      7   1  78 MISG      29.80F
GEYSER         FLURRIES   6   3  87 NE5       29.67F
GRASS RANGE    FLURRIES   9   6  86 N2        29.69F
JUDITH GAP     FLURRIES  15  11  86 S13       29.64F WCI   1
ROY            FLURRIES   6   4  91 MISG      29.73F
STANFORD       CLOUDY     8   5  89 N6        29.65F WCI  -2
WINIFRED       FLURRIES   5   3  91 MISG      29.71F
$$

MTZ017>020-022>027-061-062-101800-
NORTHEAST MONTANA

CITY           SKY/WX    TMP DP  RH WIND       PRES   REMARKS
GLASGOW        LGT SNOW  -1  -6  79 E18       29.99F WCI -22
JORDAN           N/A      7   2  80 E10       29.89F WCI  -8
SIDNEY         FLURRIES   2  -5  72 SE13      30.09F WCI -15
WOLF POINT     LGT SNOW   0  -7  72 E16       30.07F WCI -20
PLENTYWOOD       N/A     -6  -9  84 E10       30.10F VSB 1   WCI -23
SCOBEY           N/A     -2 -14  56 E15       30.01F VSB 1   WCI -22
$$

MTZ028>42-056>058-101800-
SOUTHCENTRAL AND SOUTHEAST MONTANA

CITY           SKY/WX    TMP DP  RH WIND       PRES   REMARKS
BAKER          CLOUDY     1  -5  75 SE22      29.95S WCI -21
BILLINGS       CLOUDY    10   7  87 S8        29.75F WCI  -2
LIVINGSTON     CLOUDY    13   8  81 SE3       29.67F
MILES CITY     CLOUDY     9   0  67 SE13      29.90F WCI  -7
BIG TIMBER     MOSUNNY   10   7  85 CALM      29.73S
EKALAKA          N/A      2  -6  69 E14       29.84F WCI -16
FORSYTH          N/A     10   3  72 E7        29.87S WCI   0
HARLOWTON      FLURRIES   9   6  86 W7        29.69F WCI  -2
LAUREL           N/A     10  -4  53 CALM      29.75F
$$

REGIONAL REPORTS...DAKOTAS

CITY           SKY/WX    TMP DP  RH WIND       PRES   REMARKS
WILLISTON      LGT SNOW  -2  -9  72 E13       30.17S WCI -20
MINOT          CLOUDY   -15 -19  82 SE3       30.27F
DICKINSON      CLOUDY    -3  -8  79 E14       30.05F WCI -22
BEACH          CLOUDY     0  -2  92 SE24      30.02F WCI -24
CROSBY           N/A     -9 -15  77 E9        30.21F WCI -27
TIOGA          CLOUDY    -8 -11  84 E9        30.17F WCI -25
WATFORD CITY   PTSUNNY   -4  -9  77 SE15      30.14F WCI -25
BISMARCK       CLOUDY   -14 -17  87 NE7       30.30F WCI -30
GRAND FORKS    CLOUDY    -4 -10  75 E5        30.45F
FARGO          CLOUDY    -1  -8  72 E3        30.45R
BUFFALO SD       N/A      2  -3  80 SE18      29.87F WCI -19
RAPID CITY     CLOUDY     3  -1  83 SE12      29.94F WCI -13
$$

REGIONAL REPORTS...WYOMING/IDAHO/WASHINGTON

CITY           SKY/WX    TMP DP  RH WIND       PRES   REMARKS
GILLETTE       CLOUDY     8   4  83 S8        29.76F WCI  -4
SHERIDAN       CLOUDY    14   6  70 NE3       29.77F
BUFFALO WY     CLOUDY    17   9  70 CALM      29.72S
CODY           CLOUDY    17   9  70 CALM      29.71F
YELLOWSTONE LA   N/A     27  24  89 W9G17     29.73S WCI  18
IDAHO FALLS    LGT RAIN  34  32  92 SW21G29   29.80S WCI  22
SALMON         CLOUDY    19  18  93 CALM      29.76S
BOISE          CLOUDY    36  34  92 E7        29.85S WCI  30
SPOKANE        CLOUDY    20  17  88 SW8       29.85R WCI  10
$$

REGIONAL REPORTS...ALBERTA

CITY           SKY/WX    TMP DP  RH WIND       PRES   REMARKS
EDMONTON       CLOUDY   -15 -22  70 E2        30.00S
LETHBRIDGE     LGT SNOW  -2  -6  84 N8        29.79F WCI -17
MEDICINE HAT   FLURRIES   3   0  85 N6        29.89F WCI  -8
WATERTON GATE    N/A     -4  -8  84 E5          N/A
MILK RIVER       N/A      5   1  85 SE8         N/A  WCI  -8
ONEFOUR          N/A      1  -2  85 E13         N/A  WCI -16
$$

REGIONAL REPORTS...SASKATCHEWAN

CITY           SKY/WX    TMP DP  RH WIND       PRES   REMARKS
SWIFT CURRENT  CLOUDY     0  -6  78 SE14G20   29.92F WCI -19
REGINA         MOSUNNY  -13 -18  77 SE15      30.18F WCI -36
SASKATOON      MOSUNNY   -4  -9  77 SE8       30.17F WCI -19
VAL MARIE        N/A      3  -2  78 SE15G22     N/A  WCI -15
ROCKGLEN         N/A     -4  -8  84 E10         N/A  WCI -21
ASSINIBOIA       N/A    -13 -18  77 NE3         N/A
$$



USA.gov is the U.S. government's official web portal to all federal, state and local government web resources and services.